Location: *
(48.8489°N, 2.3218°E)
Time: 08:43:27
(UTC+00:00)

Cosmos 1697 Rocket - Pass Details

Date: 23 August 2019
Orbit: 831 x 844 km, 71.0° (Epoch: 16 October)

Event Time Altitude Azimuth Distance (km) Brightness Sun altitude
Rises 20:02:24 0° 334° (NNW) 3,413 7.0 -11.3°
Reaches altitude 10° 20:04:57 10° 339° (NNW) 2,476 6.0 -11.7°
Maximum altitude 20:10:28 50° 55° (NE) 1,069 3.1 -12.4°
Enters shadow 20:14:29 18° 125° (SE) 1,947 3.9 -13.0°
